Metropolis, IL

11:32 AM CST on December 09, 2016 (GMT -0600)
Metropolis

Weather History for KM30 - February, 2013

Change the Weather History Date:

Wednesday, February 20, 2013

  Actual Average (KPAH) Record (KPAH)
Temperature  
Mean Temperature 28 °F -  
Max Temperature 32 °F 51 °F 74 °F (1986)
Min Temperature 23 °F 30 °F 9 °F (2015)
Degree Days  
Heating Degree Days 38    
Moisture  
Dew Point 15 °F    
Average Humidity 60    
Maximum Humidity 74    
Minimum Humidity 49    
Precipitation  
Precipitation 0.00 in - - ()
Sea Level Pressure  
Sea Level Pressure 30.31 in    
Wind  
Wind Speed 5 mph (North)    
Max Wind Speed 9 mph    
Max Gust Speed -    
Visibility 10 miles    
Events      
Averages and records for this station are not official NWS values.
T = Trace of Precipitation, MM = Missing Value Source: NWS Daily Summary

Daily Weather History Graph

Daily Weather History Graph

Search for Another Location

Airport or City:

Trip Planner

Search our weather history database for the weather conditions in past years. The results will help you decide how hot, cold, wet, or windy it might be!

Date:

Astronomy

Feb. 20, 2013 Rise Set
Actual Time 6:37 AM CST 5:40 PM CST
Civil Twilight 6:11 AM CST 6:06 PM CST
Nautical Twilight 5:40 AM CST 6:37 PM CST
Astronomical Twilight 5:10 AM CST 7:07 PM CST
Moon 1:05 PM CST (2/20) 2:53 AM CST (2/20)
Length of Visible Light 11h 55m
Length of Day
11h 02m
Waxing Gibbous, 76% of the Moon is Illuminated
Feb 20
Waxing Gibbous
Feb 25
Full
Mar 4
Last Quarter
Mar 11
New
Mar 19
First Quarter

Hourly Weather History & Observations

Time (CST) Temp. Windchill Dew Point Humidity Pressure Visibility Wind Dir Wind Speed Gust Speed Precip Events Conditions
12:15 AM 27.5 °F 21.1 °F 17.4 °F 66% 30.30 in 10.0 mi NNW 5.8 mph - N/A   Clear
12:35 AM 26.8 °F 22.8 °F 17.2 °F 67% 30.29 in 10.0 mi NNW 3.5 mph - N/A   Clear
12:55 AM 26.8 °F 20.2 °F 16.7 °F 66% 30.30 in 10.0 mi NNW 5.8 mph - N/A   Clear
1:15 AM 26.8 °F 22.8 °F 16.3 °F 65% 30.30 in 10.0 mi NW 3.5 mph - N/A   Clear
1:35 AM 26.8 °F - 16.0 °F 64% 30.30 in 10.0 mi Calm Calm - N/A   Clear
1:55 AM 26.2 °F 20.7 °F 16.0 °F 65% 30.29 in 10.0 mi NNW 4.6 mph - N/A   Clear
2:15 AM 26.4 °F 18.9 °F 15.1 °F 62% 30.29 in 10.0 mi NNW 6.9 mph - N/A   Clear
2:35 AM 26.4 °F 20.9 °F 14.5 °F 61% 30.29 in 10.0 mi NNW 4.6 mph - N/A   Clear
2:55 AM 25.7 °F 18.0 °F 14.7 °F 63% 30.29 in 10.0 mi NNW 6.9 mph - N/A   Clear
3:15 AM 25.7 °F 19.0 °F 14.5 °F 63% 30.29 in 10.0 mi NNW 5.8 mph - N/A   Clear
3:35 AM 24.8 °F 20.5 °F 14.7 °F 66% 30.29 in 10.0 mi NNW 3.5 mph - N/A   Clear
3:55 AM 24.6 °F 20.3 °F 14.5 °F 66% 30.29 in 10.0 mi WNW 3.5 mph - N/A   Clear
4:15 AM 24.6 °F 20.3 °F 14.2 °F 65% 30.30 in 10.0 mi NW 3.5 mph - N/A   Clear
4:35 AM 24.3 °F 19.9 °F 14.2 °F 65% 30.31 in 10.0 mi NW 3.5 mph - N/A   Clear
5:15 AM 23.9 °F - 15.4 °F 70% 30.31 in 10.0 mi Calm Calm - N/A   Clear
5:35 AM 24.3 °F 19.9 °F 13.5 °F 63% 30.30 in 10.0 mi NNW 3.5 mph - N/A   Clear
6:15 AM 24.4 °F - 12.9 °F 62% 30.31 in 10.0 mi Calm Calm - N/A   Clear
6:35 AM 24.3 °F 19.9 °F 13.5 °F 63% 30.31 in 10.0 mi North 3.5 mph - N/A   Clear
6:55 AM 24.3 °F 19.9 °F 13.6 °F 64% 30.32 in 10.0 mi North 3.5 mph - N/A   Clear
7:15 AM 24.8 °F 15.3 °F 13.5 °F 62% 30.34 in 10.0 mi NNW 9.2 mph - N/A   Clear
7:35 AM 25.2 °F 18.3 °F 12.7 °F 59% 30.34 in 10.0 mi North 5.8 mph - N/A   Clear
7:55 AM 25.7 °F 18.0 °F 12.7 °F 58% 30.34 in 10.0 mi North 6.9 mph - N/A   Clear
8:15 AM 25.7 °F 19.0 °F 12.4 °F 57% 30.35 in 10.0 mi North 5.8 mph - N/A   Clear
8:35 AM 25.9 °F 19.2 °F 12.7 °F 58% 30.36 in 10.0 mi NNW 5.8 mph - N/A   Clear
8:55 AM 26.4 °F 20.9 °F 12.6 °F 56% 30.37 in 10.0 mi North 4.6 mph - N/A   Clear
9:35 AM 26.8 °F 18.5 °F 12.7 °F 56% 30.38 in 10.0 mi North 8.1 mph - N/A   Clear
9:55 AM 27.5 °F 22.2 °F 13.5 °F 56% 30.38 in 10.0 mi North 4.6 mph - N/A   Clear
10:15 AM 27.7 °F 21.3 °F 13.1 °F 54% 30.37 in 10.0 mi North 5.8 mph - N/A   Clear
10:35 AM 28.2 °F 24.4 °F 12.9 °F 53% 30.38 in 10.0 mi NNW 3.5 mph - N/A   Clear
10:55 AM 28.8 °F 22.6 °F 13.5 °F 53% 30.38 in 10.0 mi NW 5.8 mph - N/A   Clear
11:15 AM 28.9 °F 23.9 °F 12.6 °F 50% 30.37 in 10.0 mi North 4.6 mph - N/A   Clear
11:35 AM 29.3 °F 25.6 °F 12.7 °F 50% 30.35 in 10.0 mi NNW 3.5 mph - N/A   Clear
11:55 AM 29.3 °F 24.3 °F 12.6 °F 50% 30.35 in 10.0 mi NNW 4.6 mph - N/A   Clear
12:15 PM 30.2 °F 25.4 °F 13.3 °F 49% 30.36 in 10.0 mi North 4.6 mph - N/A   Clear
12:35 PM 30.4 °F 23.6 °F 14.0 °F 51% 30.36 in 10.0 mi NNW 6.9 mph - N/A   Clear
12:55 PM 30.7 °F 26.0 °F 13.5 °F 49% 30.36 in 10.0 mi North 4.6 mph - N/A   Clear
1:15 PM 30.7 °F - 14.0 °F 50% 30.35 in 10.0 mi Calm Calm - N/A   Clear
1:35 PM 31.1 °F 25.4 °F 14.9 °F 51% 30.34 in 10.0 mi NW 5.8 mph - N/A   Clear
1:55 PM 31.1 °F 25.4 °F 13.8 °F 49% 30.34 in 10.0 mi North 5.8 mph - N/A   Clear
2:35 PM 31.6 °F 26.0 °F 14.7 °F 50% 30.29 in 10.0 mi NNE 5.8 mph - N/A   Mostly Cloudy
2:55 PM 32.0 °F 27.5 °F 15.6 °F 51% 30.28 in 10.0 mi NE 4.6 mph - N/A   Scattered Clouds
3:15 PM 32.0 °F 24.8 °F 15.6 °F 51% 30.30 in 10.0 mi North 8.1 mph - N/A   Scattered Clouds
3:35 PM 32.0 °F 25.6 °F 15.4 °F 51% 30.29 in 10.0 mi North 6.9 mph - N/A   Overcast
3:55 PM 32.0 °F 24.8 °F 16.0 °F 52% 30.27 in 10.0 mi ENE 8.1 mph - N/A   Mostly Cloudy
4:15 PM 32.4 °F 26.9 °F 16.2 °F 51% 30.27 in 10.0 mi NNE 5.8 mph - N/A   Scattered Clouds
4:35 PM 32.2 °F 26.7 °F 15.1 °F 49% 30.26 in 10.0 mi NNE 5.8 mph - N/A   Scattered Clouds
4:55 PM 30.9 °F 25.2 °F 15.1 °F 52% 30.27 in 10.0 mi ENE 5.8 mph - N/A   Clear
5:15 PM 30.7 °F 26.0 °F 15.8 °F 54% 30.28 in 10.0 mi NE 4.6 mph - N/A   Clear
5:55 PM 29.3 °F 25.6 °F 16.2 °F 58% 30.28 in 10.0 mi ENE 3.5 mph - N/A   Clear
6:15 PM 29.1 °F 25.4 °F 15.8 °F 58% 30.29 in 10.0 mi NE 3.5 mph - N/A   Clear
6:35 PM 28.4 °F 24.6 °F 16.2 °F 60% 30.29 in 10.0 mi NE 3.5 mph - N/A   Clear
6:55 PM 28.2 °F 24.4 °F 15.8 °F 60% 30.30 in 10.0 mi NE 3.5 mph - N/A   Scattered Clouds
7:15 PM 27.7 °F 22.4 °F 17.2 °F 65% 30.29 in 10.0 mi NNE 4.6 mph - N/A   Mostly Cloudy
7:35 PM 27.9 °F 21.5 °F 16.7 °F 63% 30.28 in 10.0 mi NE 5.8 mph - N/A   Scattered Clouds
7:55 PM 27.5 °F 23.6 °F 17.2 °F 65% 30.28 in 10.0 mi NE 3.5 mph - N/A   Clear
8:15 PM 26.8 °F - 17.4 °F 68% 30.29 in 10.0 mi Calm Calm - N/A   Clear
8:35 PM 27.3 °F 23.4 °F 18.3 °F 69% 30.30 in 10.0 mi NNE 3.5 mph - N/A   Clear
8:55 PM 27.1 °F 23.2 °F 18.3 °F 69% 30.30 in 10.0 mi NNE 3.5 mph - N/A   Clear
9:15 PM 27.1 °F 21.8 °F 18.3 °F 69% 30.29 in 10.0 mi NE 4.6 mph - N/A   Clear
9:35 PM 27.1 °F 20.7 °F 18.5 °F 70% 30.29 in 10.0 mi NE 5.8 mph - N/A   Clear
9:55 PM 26.6 °F 19.1 °F 18.3 °F 71% 30.29 in 10.0 mi NNE 6.9 mph - N/A   Clear
10:15 PM 26.4 °F 19.8 °F 18.5 °F 72% 30.28 in 10.0 mi NNE 5.8 mph - N/A   Clear
10:35 PM 26.4 °F 20.9 °F 19.0 °F 74% 30.28 in 10.0 mi NNE 4.6 mph - N/A   Clear
10:55 PM 26.1 °F 20.5 °F 18.9 °F 74% 30.28 in 10.0 mi NNE 4.6 mph - N/A   Clear
11:15 PM 26.2 °F 18.6 °F 19.0 °F 74% 30.28 in 10.0 mi NNE 6.9 mph - N/A   Clear
11:35 PM 26.4 °F 19.8 °F 19.2 °F 74% 30.29 in 10.0 mi NNE 5.8 mph - N/A   Clear
11:55 PM 26.4 °F 20.9 °F 19.0 °F 74% 30.28 in 10.0 mi NE 4.6 mph - N/A   Clear